When you browse on this site, cookies collect data to enhance your experience and personalize the content and advertising you see.
Visit our Privacy Policy to learn more. By continuing to use the site, you agree to this use of cookies and data.
  • In United Kingdom
  • List of Countries
  • For 7 days
  • Water Temperature
  • Satellite Maps
  • Weather Map
  • Weather Widgets
  • user-avatar
    Login

    Hourly Weather Moyomamba

    Today, 20 July, Saturday

    Time Temperature Precipitation Wind Pressure Humidity
    00:00 +17°C° 0 mm 0 mps 683 mmHg 94%
    01:00 +17°C° 0 mm 0 mps 682 mmHg 96%
    02:00 +17°C° 0.1 mm 0 mps 682 mmHg 96%
    03:00 +17°C° 0.1 mm 0 mps 682 mmHg 96%
    04:00 +17°C° 0.1 mm 0 mps 682 mmHg 96%
    05:00 +17°C° 0.1 mm 0 mps 682 mmHg 95%
    06:00 +17°C° 0.1 mm 0 mps 682 mmHg 95%
    07:00 +17°C° 0 mm 0 mps 683 mmHg 92%
    08:00 +19°C° 0.3 mm 0 mps 684 mmHg 87%
    09:00 +21°C° 0.3 mm 0 mps 685 mmHg 82%
    10:00 +23°C° 0.3 mm 0 mps 685 mmHg 77%
    11:00 +26°C° 0.6 mm 1 mps 685 mmHg 74%
    12:00 +27°C° 0.6 mm 1 mps 684 mmHg 71%
    13:00 +28°C° 0.6 mm 1 mps 683 mmHg 68%
    14:00 +27°C° 0.5 mm 1 mps 682 mmHg 70%
    15:00 +27°C° 0.5 mm 1 mps 682 mmHg 72%
    16:00 +27°C° 0.5 mm 1 mps 681 mmHg 75%
    17:00 +25°C° 0.4 mm 1 mps 681 mmHg 82%
    18:00 +23°C° 0.4 mm 1 mps 681 mmHg 89%
    19:00 +19°C° 0.4 mm 0 mps 681 mmHg 96%
    20:00 +19°C° 0.2 mm 0 mps 682 mmHg 95%
    21:00 +18°C° 0.2 mm 0 mps 682 mmHg 95%
    22:00 +18°C° 0.2 mm 0 mps 682 mmHg 95%
    23:00 +18°C° 0.2 mm 0 mps 682 mmHg 95%

    Tomorrow, 21 July, Sunday

    Time Temperature Precipitation Wind Pressure Humidity
    00:00 +18°C° 0.2 mm 0 mps 683 mmHg 94%
    01:00 +18°C° 0.2 mm 0 mps 683 mmHg 94%
    02:00 +18°C° 0.1 mm 0 mps 682 mmHg 94%
    03:00 +17°C° 0.1 mm 0 mps 682 mmHg 95%
    04:00 +17°C° 0.1 mm 0 mps 681 mmHg 95%
    05:00 +17°C° 0 mm 0 mps 682 mmHg 94%
    06:00 +17°C° 0 mm 0 mps 682 mmHg 94%
    07:00 +17°C° 0 mm 0 mps 682 mmHg 93%
    08:00 +19°C° 0 mm 0 mps 683 mmHg 89%
    09:00 +20°C° 0 mm 0 mps 683 mmHg 84%
    10:00 +22°C° 0 mm 0 mps 684 mmHg 80%
    11:00 +22°C° 0.2 mm 0 mps 684 mmHg 79%
    12:00 +23°C° 0.2 mm 0 mps 683 mmHg 78%
    13:00 +23°C° 0.2 mm 0 mps 683 mmHg 77%
    14:00 +24°C° 0.2 mm 0 mps 682 mmHg 73%
    15:00 +24°C° 0.2 mm 0 mps 681 mmHg 69%
    16:00 +25°C° 0.2 mm 0 mps 681 mmHg 65%
    17:00 +23°C° 0.1 mm 0 mps 680 mmHg 74%
    18:00 +21°C° 0.1 mm 0 mps 680 mmHg 84%
    19:00 +19°C° 0.1 mm 0 mps 680 mmHg 93%
    20:00 +19°C° 0.2 mm 0 mps 681 mmHg 94%
    21:00 +18°C° 0.2 mm 0 mps 681 mmHg 95%
    22:00 +18°C° 0.2 mm 0 mps 682 mmHg 96%
    23:00 +18°C° 0.1 mm 0 mps 682 mmHg 96%

    Day after tomorrow, 22 July, Monday

    Time Temperature Precipitation Wind Pressure Humidity
    00:00 +18°C° 0.1 mm 0 mps 682 mmHg 96%
    01:00 +17°C° 0.1 mm 0 mps 682 mmHg 96%
    02:00 +17°C° 0 mm 0 mps 681 mmHg 96%
    03:00 +17°C° 0 mm 0 mps 681 mmHg 96%
    04:00 +17°C° 0 mm 0 mps 681 mmHg 96%
    05:00 +17°C° 0 mm 0 mps 681 mmHg 96%
    06:00 +17°C° 0 mm 0 mps 682 mmHg 95%
    07:00 +17°C° 0 mm 0 mps 682 mmHg 95%
    08:00 +19°C° 0 mm 0 mps 683 mmHg 88%
    09:00 +21°C° 0 mm 0 mps 683 mmHg 81%
    10:00 +23°C° 0 mm 0 mps 684 mmHg 74%
    11:00 +24°C° 0.5 mm 0 mps 683 mmHg 71%
    12:00 +25°C° 0.5 mm 0 mps 683 mmHg 68%
    13:00 +26°C° 0.5 mm 0 mps 682 mmHg 65%
    14:00 +28°C° 0.4 mm 1 mps 682 mmHg 69%
    15:00 +27°C° 0.4 mm 1 mps 681 mmHg 73%
    16:00 +27°C° 0.4 mm 1 mps 680 mmHg 77%
    17:00 +25°C° 0.5 mm 1 mps 680 mmHg 83%
    18:00 +21°C° 0.5 mm 0 mps 680 mmHg 89%
    19:00 +19°C° 0.5 mm 0 mps 680 mmHg 96%
    20:00 +19°C° 0.2 mm 0 mps 681 mmHg 96%
    21:00 +19°C° 0.2 mm 0 mps 682 mmHg 97%
    22:00 +18°C° 0.2 mm 0 mps 682 mmHg 97%
    23:00 +18°C° 0.3 mm 0 mps 682 mmHg 97%

    23 July, Tuesday

    Time Temperature Precipitation Wind Pressure Humidity
    00:00 +18°C° 0.3 mm 0 mps 682 mmHg 97%
    01:00 +18°C° 0.3 mm 0 mps 682 mmHg 97%
    02:00 +18°C° 0.6 mm 0 mps 682 mmHg 97%
    03:00 +18°C° 0.6 mm 0 mps 681 mmHg 97%
    04:00 +18°C° 0.6 mm 0 mps 681 mmHg 97%
    05:00 +18°C° 0.1 mm 0 mps 681 mmHg 97%
    06:00 +18°C° 0.1 mm 0 mps 682 mmHg 97%
    07:00 +18°C° 0.1 mm 0 mps 682 mmHg 97%
    08:00 +20°C° 0.3 mm 0 mps 683 mmHg 91%
    09:00 +22°C° 0.3 mm 0 mps 684 mmHg 85%
    10:00 +24°C° 0.3 mm 0 mps 684 mmHg 80%
    11:00 +25°C° 0.6 mm 0 mps 684 mmHg 76%
    12:00 +28°C° 0.6 mm 1 mps 683 mmHg 71%
    13:00 +28°C° 0.6 mm 1 mps 682 mmHg 67%
    14:00 +27°C° 0.8 mm 1 mps 682 mmHg 75%
    15:00 +24°C° 0.8 mm 0 mps 681 mmHg 83%
    16:00 +23°C° 0.8 mm 0 mps 680 mmHg 91%
    17:00 +22°C° 0.5 mm 0 mps 680 mmHg 93%
    18:00 +21°C° 0.5 mm 0 mps 680 mmHg 95%
    19:00 +19°C° 0.5 mm 0 mps 681 mmHg 98%
    20:00 +19°C° 0.2 mm 0 mps 681 mmHg 98%
    21:00 +19°C° 0.2 mm 0 mps 682 mmHg 98%
    22:00 +18°C° 0.2 mm 0 mps 682 mmHg 98%
    23:00 +18°C° 0.2 mm 0 mps 682 mmHg 98%

    24 July, Wednesday

    Time Temperature Precipitation Wind Pressure Humidity
    00:00 +18°C° 0.2 mm 0 mps 682 mmHg 98%
    01:00 +18°C° 0.2 mm 0 mps 682 mmHg 98%
    02:00 +18°C° 0.3 mm 0 mps 682 mmHg 98%
    03:00 +18°C° 0.3 mm 0 mps 681 mmHg 98%
    04:00 +18°C° 0.3 mm 0 mps 681 mmHg 98%
    05:00 +18°C° 0 mm 0 mps 681 mmHg 98%
    06:00 +18°C° 0 mm 0 mps 682 mmHg 98%
    07:00 +18°C° 0 mm 0 mps 682 mmHg 98%
    08:00 +20°C° 0.2 mm 0 mps 683 mmHg 94%
    09:00 +21°C° 0.2 mm 0 mps 684 mmHg 89%
    10:00 +22°C° 0.2 mm 0 mps 684 mmHg 85%
    11:00 +22°C° 0.7 mm 0 mps 683 mmHg 86%
    12:00 +23°C° 0.7 mm 0 mps 683 mmHg 87%
    13:00 +23°C° 0.7 mm 0 mps 682 mmHg 87%
    14:00 +23°C° 0.5 mm 0 mps 681 mmHg 85%
    15:00 +23°C° 0.5 mm 0 mps 681 mmHg 83%
    16:00 +24°C° 0.5 mm 0 mps 680 mmHg 80%
    17:00 +22°C° 0.3 mm 0 mps 680 mmHg 85%
    18:00 +21°C° 0.3 mm 0 mps 680 mmHg 90%
    19:00 +19°C° 0.3 mm 0 mps 680 mmHg 95%
    20:00 +19°C° 0.1 mm 0 mps 681 mmHg 95%
    21:00 +18°C° 0.1 mm 0 mps 681 mmHg 95%
    22:00 +18°C° 0.1 mm 0 mps 682 mmHg 95%
    23:00 +18°C° 0 mm 0 mps 682 mmHg 95%

    25 July, Thursday

    Time Temperature Precipitation Wind Pressure Humidity
    00:00 +18°C° 0 mm 0 mps 682 mmHg 95%
    01:00 +17°C° 0 mm 0 mps 681 mmHg 96%
    02:00 +17°C° 0 mm 0 mps 681 mmHg 96%
    03:00 +17°C° 0 mm 0 mps 681 mmHg 96%
    04:00 +17°C° 0 mm 0 mps 681 mmHg 96%
    05:00 +17°C° 0 mm 0 mps 681 mmHg 96%
    06:00 +17°C° 0 mm 0 mps 682 mmHg 95%
    07:00 +17°C° 0 mm 0 mps 682 mmHg 95%
    08:00 +20°C° 0.2 mm 0 mps 683 mmHg 88%
    09:00 +22°C° 0.2 mm 0 mps 684 mmHg 81%
    10:00 +24°C° 0.2 mm 0 mps 684 mmHg 74%
    11:00 +27°C° 0.5 mm 1 mps 684 mmHg 71%
    12:00 +27°C° 0.5 mm 1 mps 683 mmHg 67%
    13:00 +28°C° 0.5 mm 1 mps 682 mmHg 64%
    14:00 +28°C° 0.5 mm 1 mps 682 mmHg 67%
    15:00 +27°C° 0.5 mm 1 mps 681 mmHg 70%
    16:00 +27°C° 0.5 mm 1 mps 680 mmHg 74%
    17:00 +25°C° 0.5 mm 1 mps 680 mmHg 81%
    18:00 +23°C° 0.5 mm 1 mps 681 mmHg 89%
    19:00 +19°C° 0.5 mm 0 mps 681 mmHg 97%
    20:00 +18°C° 0.6 mm 0 mps 682 mmHg 97%
    21:00 +18°C° 0.6 mm 0 mps 682 mmHg 97%
    22:00 +18°C° 0.6 mm 0 mps 683 mmHg 98%
    23:00 +17°C° 0.5 mm 0 mps 683 mmHg 98%
    Show more